Preview of NWS' New Version of Forecast
This preview is not operational and should not be used for support decisions.

Regional Weather Roundup (RWR)

Issued by National Weather Service (NWS)

                            
000
ASUS43 KLSX 211657
RWRMO 

WEATHER SUMMARY FOR MISSOURI
NATIONAL WEATHER SERVICE SPRINGFIELD MO
1200 PM CDT SUN JUL 21 2019

NOTE: "FAIR" INDICATES FEW OR NO CLOUDS BELOW 12,000 FEET WITH NO
       SIGNIFICANT WEATHER AND/OR OBSTRUCTIONS TO VISIBILITY.
       CURRENT SKY AND/OR WEATHER CONDITIONS ARE NOT AVAILABLE FOR
       CHILLICOTHE AND FARMINGTON.

MOZ001>031-035>038-043-044-053-054-211800-
...NORTHERN AND WESTERN MISSOURI...
  
CITY           SKY/WX    TMP DP  RH WIND       PRES   REMARKS
KANSAS CTY INT PTSUNNY   79  71  76 NE18      30.02R                  
KANSAS C DTWN  PTSUNNY   81  72  74 NE10G17   29.99R                  
LEE'S SUMMIT   PTSUNNY   79  71  76 E10       30.01R                  
ST JOSEPH      PTSUNNY   79  69  71 MISG      30.02R                  
CHILLICOTHE      N/A     78  71  79 CALM      30.04R                  
     
$$
MOZ066>068-077>081-088>096-101>105-211800-
...SOUTHWEST MISSOURI...
  
CITY           SKY/WX    TMP DP  RH WIND       PRES   REMARKS
SPRINGFIELD    MOSUNNY   88  73  61 SW6       29.99S HX  95           
JOPLIN         SUNNY     89  73  59 S13G18    29.96S HX  97           
BRANSON        PTSUNNY   88  72  58 SW6       30.01F HX  94           
               
$$
MOZ032>034-039>042-045>050-055>058-069>072-211800-
...CENTRAL MISSOURI...  
  
CITY           SKY/WX    TMP DP  RH WIND       PRES   REMARKS
COLUMBIA       NOT AVBL                                               
ROLLA          SUNNY     85  70  60 NE7       30.01S                  
SEDALIA        SUNNY     75  70  84 E13G20    30.01F                  
               
$$
MOZ051-052-059>065-211800-
...EAST CENTRAL MISSOURI...
  
CITY           SKY/WX    TMP DP  RH WIND       PRES   REMARKS
ST LOUIS INTL  MOSUNNY   89  72  56 NW9       29.96S HX  96           
                   
$$
MOZ072>076-082>087-097>100-106>115-211800-
...SOUTH CENTRAL AND SOUTHEAST MISSOURI...
  
CITY           SKY/WX    TMP DP  RH WIND       PRES   REMARKS
CAPE GIRARDEAU FAIR      90  76  63 VRB5      29.95S HX 101           
POPLAR BLUFF   FAIR      89  80  74 SW9       29.96S HX 106           
WEST PLAINS    MOSUNNY   88  75  65 VRB5      30.02S HX  97           
                                       
$$